Rochester, NH

1:20 PM EDT on May 23, 2017 (GMT -0400)
Skyhaven

Weather History for KDAW - October, 2013

Change the Weather History Date:

Monday, October 28, 2013

  Actual Average (KPSM) Record (KPSM)
Temperature  
Mean Temperature 44 °F -  
Max Temperature 55 °F 53 °F 76 °F (1989)
Min Temperature 32 °F 36 °F 17 °F (1976)
Degree Days  
Heating Degree Days 21    
Moisture  
Dew Point 28 °F    
Average Humidity 60    
Maximum Humidity 82    
Minimum Humidity 40    
Precipitation  
Precipitation 0.00 in - - ()
Sea Level Pressure  
Sea Level Pressure 30.13 in    
Wind  
Wind Speed 4 mph (NW)    
Max Wind Speed 22 mph    
Max Gust Speed 32 mph    
Visibility 10 miles    
Events      
Averages and records for this station are not official NWS values.
T = Trace of Precipitation, MM = Missing Value Source: NWS Daily Summary

Daily Weather History Graph

Daily Weather History Graph

Search for Another Location

Airport or City:

Trip Planner

Search our weather history database for the weather conditions in past years. The results will help you decide how hot, cold, wet, or windy it might be!

Date:

Astronomy

Oct. 28, 2013 Rise Set
Actual Time 7:13 AM EDT 5:40 PM EDT
Civil Twilight 6:44 AM EDT 6:09 PM EDT
Nautical Twilight 6:10 AM EDT 6:43 PM EDT
Astronomical Twilight 5:37 AM EDT 7:16 PM EDT
Moon 12:54 AM EDT (10/28) 2:29 PM EDT (10/28)
Length of Visible Light 11h 25m
Length of Day
10h 26m
Waning Crescent, 34% of the Moon is Illuminated
Oct 28
Waning Crescent
Nov 3
New
Nov 10
First Quarter
Nov 17
Full
Nov 25
Last Quarter

Hourly Weather History & Observations

Time (EDT) Temp. Windchill Dew Point Humidity Pressure Visibility Wind Dir Wind Speed Gust Speed Precip Events Conditions
12:51 AM 37.0 °F - 27.0 °F 67% 30.02 in 10.0 mi Calm Calm - N/A   Clear
1:51 AM 37.0 °F 34.5 °F 28.0 °F 70% 30.04 in 10.0 mi Variable 3.5 mph - N/A   Clear
2:51 AM 37.0 °F - 28.0 °F 70% 30.04 in 10.0 mi Calm Calm - N/A   Clear
3:51 AM 36.0 °F - 28.9 °F 76% 30.04 in 10.0 mi Calm Calm - N/A   Clear
4:51 AM 34.0 °F - 28.0 °F 79% 30.05 in 10.0 mi Calm Calm - N/A   Mostly Cloudy
5:51 AM 35.1 °F - 28.9 °F 78% 30.06 in 10.0 mi Calm Calm - N/A   Overcast
6:51 AM 33.1 °F - 28.0 °F 82% 30.06 in 10.0 mi Calm Calm - N/A   Partly Cloudy
7:51 AM 35.1 °F - 30.0 °F 82% 30.07 in 10.0 mi Calm Calm - N/A   Scattered Clouds
8:51 AM 37.9 °F - 30.9 °F 76% 30.08 in 10.0 mi Calm Calm - N/A   Mostly Cloudy
9:51 AM 44.1 °F 41.5 °F 32.0 °F 63% 30.08 in 10.0 mi Variable 4.6 mph - N/A   Clear
10:51 AM 48.9 °F - 30.9 °F 50% 30.06 in 10.0 mi Variable 5.8 mph - N/A   Clear
11:51 AM 53.1 °F - 32.0 °F 45% 30.05 in 10.0 mi Variable 5.8 mph - N/A   Clear
12:51 PM 55.0 °F - 32.0 °F 42% 30.04 in 10.0 mi Variable 5.8 mph 19.6 mph N/A   Partly Cloudy
1:51 PM 55.0 °F - 30.9 °F 40% 30.04 in 10.0 mi West 10.4 mph 24.2 mph N/A   Mostly Cloudy
2:51 PM 54.0 °F - 33.1 °F 45% 30.07 in 10.0 mi WNW 12.7 mph 18.4 mph N/A   Overcast
3:51 PM 50.0 °F - 32.0 °F 50% 30.13 in 10.0 mi NW 20.7 mph 32.2 mph N/A   Mostly Cloudy
4:51 PM 48.0 °F - 30.0 °F 50% 30.16 in 10.0 mi NW 21.9 mph 26.5 mph N/A   Partly Cloudy
5:51 PM 46.0 °F 41.4 °F 26.1 °F 46% 30.20 in 10.0 mi NW 9.2 mph - N/A   Partly Cloudy
6:51 PM 43.0 °F 36.4 °F 24.1 °F 47% 30.25 in 10.0 mi NW 12.7 mph - N/A   Clear
7:51 PM 41.0 °F - 23.0 °F 49% 30.28 in 10.0 mi Calm Calm - N/A   Clear
8:51 PM 37.9 °F 33.5 °F 21.9 °F 53% 30.30 in 10.0 mi NW 5.8 mph - N/A   Clear
9:51 PM 37.0 °F 33.3 °F 21.0 °F 52% 30.31 in 10.0 mi NW 4.6 mph - N/A   Clear
10:51 PM 33.1 °F 30.0 °F 21.9 °F 64% 30.32 in 10.0 mi NW 3.5 mph - N/A   Clear
11:51 PM 32.0 °F - 21.9 °F 66% 30.34 in 10.0 mi Calm Calm - N/A   Clear